sat.trackr.live / text

‹ back to catalog

SITRO-AIS 43

NORAD 61755 · 2024-199W

PAYLOAD ACTIVE UNKNOWN

§ Identity

Operator
Country
CIS
Launch date
2024-11-04
Launch site
VOSTO
Launch vehicle
Mass (kg)
RCS (m²)

External: N2YO · Heavens-Above · Gunter

§ Orbital elements

Epoch: 2026-05-25T03:07:13.827360Z

Period
92.01 min
Inclination
97.2946°
Eccentricity
0.0003707
Mean motion
15.64993925 rev/d
Perigee alt
370.8 km
Apogee alt
375.8 km
Semi-major
6,751.4 km
B*
7.3112e-4
RAAN
23.5650°
Arg perigee
29.9981°
Mean anomaly
330.1491°
Rev number
13,418

§ Raw data

SITRO-AIS 431 61755U 24199W   26145.13002115  .00072068  00000+0  73112-3 0  99992 61755  97.2946  23.5650 0003707  29.9981 330.1491 15.64993925134180

JSON: /api/v1/satellites/61755 · /tle

For live sub-satellite position, see the globe view (requires WebGL).

§ Visibility from observer

Set your observer location to see the next 7 days of passes ≥ 10°. The values pass through the URL so the page stays shareable.

No JS? Fill the form by hand. The geolocation button needs JavaScript.

§ Radio — SatNOGS DB

ModeDescriptionDownlinkUplink
GMSK USP Mode U - GMSK2k4 - USP 401.145 MHz

1 transmitter · refreshed weekly from db.satnogs.org